Le nostre stazioni meteo in Italia

Pubblicità
Il mio iltempo24.it
Messina, Italia (16420): Temperatura & dewpoint: 10.12.2017 17:00:00 - 16.12.2017 17:00:00 (CET)Messina, Italia (16420): velocità del vento: 10.12.2017 17:00:00 - 16.12.2017 17:00:00 (CET)Messina, Italia (16420): direzione del vento: 10.12.2017 17:00:00 - 16.12.2017 17:00:00 (CET)Messina, Italia (16420): reduced air pressure: 10.12.2017 17:00:00 - 16.12.2017 17:00:00 (CET)Messina, Italia (16420): visibility: 10.12.2017 17:00:00 - 16.12.2017 17:00:00 (CET)Messina, Italia (16420): ore di luce: 10.12.2017 17:00:00 - 16.12.2017 17:00:00 (CET)
Data & Tempo tt [°C] td [°C] ff [km/h] ff [kn] dd ppp [hPa] vv [km] sd [min]
16.12.2017 17:00:00 13,2 10,7 11 6 NNE 1008,5 10 0
16.12.2017 16:00:00 13,8 11,3 9 5 NNE 1008,5 10 0
16.12.2017 15:00:00 13,6 11,7 11 6 O 1008,0 9 0
16.12.2017 14:00:00 13,4 11,1 13 7 O 1008,1 8 0
16.12.2017 13:00:00 15,0 11,2 13 7 N 1007,8 12 0
16.12.2017 12:00:00 15,0 10,2 13 7 O 1007,9 12 0
16.12.2017 11:00:00 15,2 10,8 11 6 NNO 1008,4 16 0
16.12.2017 10:00:00 15,0 11,2 15 8 NNE 1008,4 16 0
16.12.2017 09:00:00 15,0 11,2 11 6 N 1008,2 12 0
16.12.2017 08:00:00 15,0 10,6 13 7 NNO 1008,0 10 0
16.12.2017 07:00:00 15,4 9,3 9 5 O 1008,0 12 0
16.12.2017 06:00:00 14,0 9,7 13 7 NO 1008,1 14 -
16.12.2017 05:00:00 14,2 9,8 18 10 OSO 1008,1 14 -
16.12.2017 04:00:00 14,0 9,4 24 13 OSO 1008,1 14 -
16.12.2017 03:00:00 13,2 7,4 15 8 O 1008,6 14 -
16.12.2017 02:00:00 13,4 7,2 11 6 O 1008,8 14 -
16.12.2017 01:00:00 12,8 7,7 9 5 NO 1009,4 16 -
16.12.2017 00:00:00 13,2 9,5 11 6 NO 1009,4 16 -
15.12.2017 23:00:00 13,0 9,4 11 6 ONO 1009,5 14 -
15.12.2017 22:00:00 13,8 10,0 16 9 O 1009,3 15 -
15.12.2017 21:00:00 14,4 10,4 21 11 OSO 1009,1 15 -
15.12.2017 20:00:00 15,2 10,8 16 9 SSO 1008,8 15 -
15.12.2017 19:00:00 15,2 9,8 21 11 SO 1009,3 15 -
15.12.2017 18:00:00 15,0 9,6 24 13 OSO 1009,5 18 -
15.12.2017 17:00:00 15,0 8,7 26 14 OSO 1009,6 20 0
15.12.2017 16:00:00 16,0 8,2 22 12 SO 1010,2 20 60
15.12.2017 15:00:00 16,8 5,4 24 13 SSO 1010,5 20 60
15.12.2017 14:00:00 16,6 7,3 24 13 SO 1010,9 20 60
15.12.2017 13:00:00 16,0 8,5 24 13 SSO 1011,9 20 60
15.12.2017 12:00:00 16,2 7,1 22 12 SO 1013,1 20 60
15.12.2017 11:00:00 15,2 8,4 22 12 SO 1014,1 20 60
15.12.2017 10:00:00 15,0 8,6 15 8 SO 1014,3 20 60
15.12.2017 09:00:00 12,4 8,4 15 8 OSO 1014,4 20 60
15.12.2017 08:00:00 11,2 8,1 9 5 OSO 1014,7 20 18
15.12.2017 07:00:00 10,8 7,9 9 5 O 1015,5 18 0
15.12.2017 06:00:00 11,0 7,7 8 4 ONO 1015,5 15 -
15.12.2017 05:00:00 11,2 7,5 9 5 ONO 1015,9 15 -
15.12.2017 04:00:00 11,8 7,7 9 5 O 1016,6 15 -
15.12.2017 03:00:00 12,2 8,1 9 5 O 1017,1 15 -
15.12.2017 02:00:00 13,2 7,9 8 4 SO 1017,5 15 -
15.12.2017 01:00:00 13,2 8,7 11 6 NO 1017,6 15 -
15.12.2017 00:00:00 13,0 8,5 11 6 O 1017,9 15 -
14.12.2017 23:00:00 13,0 7,9 8 4 O 1017,9 15 -
14.12.2017 22:00:00 14,0 7,1 11 6 NO 1018,0 15 -
14.12.2017 21:00:00 13,8 7,1 9 5 NNO 1018,5 15 -
14.12.2017 20:00:00 13,6 6,9 11 6 N 1018,9 16 -
14.12.2017 19:00:00 14,0 7,1 9 5 NO 1019,1 16 0
14.12.2017 18:00:00 14,4 6,2 9 5 NNO 1019,1 18 0
14.12.2017 17:00:00 14,4 6,0 16 9 NE 1019,0 20 24
14.12.2017 16:00:00 15,0 5,5 18 10 NO 1019,5 20 60
14.12.2017 15:00:00 15,6 5,2 16 9 NNO 1019,8 20 60
14.12.2017 14:00:00 15,2 4,6 15 8 N 1020,3 20 60
14.12.2017 13:00:00 15,4 5,9 16 9 N 1020,8 20 60
14.12.2017 12:00:00 15,2 6,2 16 9 NO 1021,2 16 60
14.12.2017 11:00:00 14,8 5,3 15 8 NNO 1021,4 16 60
14.12.2017 10:00:00 14,4 5,2 18 10 NO 1021,5 16 60
14.12.2017 09:00:00 14,0 5,4 16 9 NO 1021,4 16 60
14.12.2017 08:00:00 13,2 4,4 11 6 NNO 1021,5 16 0
14.12.2017 07:00:00 13,8 5,9 13 7 NNO 1021,4 16 0
14.12.2017 06:00:00 13,8 5,7 15 8 N 1021,2 10 -
14.12.2017 05:00:00 13,8 6,2 16 9 NO 1021,2 10 -
14.12.2017 04:00:00 13,6 7,8 9 5 ONO 1021,4 10 -
14.12.2017 03:00:00 13,8 8,6 9 5 ONO 1021,3 10 -
14.12.2017 02:00:00 13,8 8,0 8 4 NO 1021,3 10 -
14.12.2017 01:00:00 13,8 8,4 9 5 ONO 1021,4 10 -
14.12.2017 00:00:00 14,0 8,6 11 6 ONO 1021,5 10 -
13.12.2017 23:00:00 14,4 10,0 15 8 NO 1021,6 10 -
13.12.2017 22:00:00 14,2 10,8 18 10 NO 1021,5 10 -
13.12.2017 21:00:00 14,0 11,9 15 8 NO 1021,5 10 -
13.12.2017 20:00:00 14,6 11,7 24 13 NO 1021,4 8 -
13.12.2017 19:00:00 15,4 11,0 15 8 O 1020,9 12 -
13.12.2017 18:00:00 15,8 11,4 11 6 SSO 1020,6 15 -
13.12.2017 17:00:00 16,0 12,0 15 8 ONO 1020,4 20 0
13.12.2017 16:00:00 16,8 10,7 15 8 ONO 1020,4 20 0
13.12.2017 15:00:00 17,4 9,8 13 7 NNE 1020,4 20 0
13.12.2017 14:00:00 17,6 10,4 16 9 NNO 1020,4 20 6
13.12.2017 13:00:00 18,6 6,1 21 11 NNO 1020,6 20 60
13.12.2017 12:00:00 17,8 9,9 11 6 ESE 1021,0 20 48
13.12.2017 11:00:00 17,0 8,9 13 7 SSO 1021,2 20 36
13.12.2017 10:00:00 16,6 9,6 11 6 SSE 1021,3 20 60
13.12.2017 09:00:00 13,6 8,9 8 4 SO 1021,2 20 54
13.12.2017 08:00:00 13,0 8,1 8 4 OSO 1020,8 20 12
13.12.2017 07:00:00 14,0 7,8 11 6 O 1020,6 16 0
13.12.2017 06:00:00 14,6 8,1 16 9 OSO 1020,4 12 -
13.12.2017 05:00:00 14,6 8,8 18 10 OSO 1020,5 12 -
13.12.2017 04:00:00 14,8 10,0 18 10 OSO 1020,5 12 -
13.12.2017 03:00:00 15,0 10,8 18 10 OSO 1020,6 12 -
13.12.2017 02:00:00 15,0 11,0 21 11 OSO 1020,6 12 -
13.12.2017 01:00:00 15,2 11,2 16 9 OSO 1020,8 12 -
13.12.2017 00:00:00 15,2 11,0 21 11 SO 1020,8 12 -
12.12.2017 23:00:00 15,4 11,4 15 8 OSO 1020,7 12 -
12.12.2017 22:00:00 15,6 11,8 15 8 SO 1020,6 12 -
12.12.2017 21:00:00 16,0 12,0 18 10 SO 1020,5 12 -
12.12.2017 20:00:00 16,2 12,0 15 8 SSO 1020,2 12 -
12.12.2017 19:00:00 16,2 12,4 16 9 SSO 1019,5 12 -
12.12.2017 18:00:00 16,0 13,7 21 11 SSO 1019,2 12 -
12.12.2017 17:00:00 16,2 13,9 16 9 SO 1018,8 18 0
12.12.2017 16:00:00 16,4 13,3 18 10 SO 1018,7 18 18
12.12.2017 15:00:00 16,4 13,7 18 10 SO 1018,5 18 6
12.12.2017 14:00:00 17,0 12,7 24 13 SSO 1018,4 18 18
12.12.2017 13:00:00 17,0 12,5 26 14 SSO 1018,5 18 30
12.12.2017 12:00:00 17,0 11,7 26 14 SSO 1018,7 18 54
12.12.2017 11:00:00 17,0 11,3 26 14 SSO 1018,8 18 60
12.12.2017 10:00:00 17,2 11,2 28 15 SSO 1018,4 18 60
12.12.2017 09:00:00 15,8 10,3 26 14 SSO 1018,5 18 36
12.12.2017 08:00:00 15,4 9,5 24 13 SSO 1017,8 15 18
12.12.2017 07:00:00 15,2 10,0 28 15 SSO 1017,5 15 0
12.12.2017 06:00:00 15,2 10,4 26 14 SSO 1016,9 12 -
12.12.2017 05:00:00 15,0 10,8 29 16 SSO 1016,5 12 -
12.12.2017 04:00:00 15,2 11,2 29 16 SSO 1016,5 12 -
12.12.2017 03:00:00 15,2 11,6 31 17 SSO 1016,5 12 -
12.12.2017 02:00:00 15,6 11,8 28 15 SSO 1016,3 12 -
12.12.2017 01:00:00 15,4 12,0 29 16 SSO 1017,4 12 -
12.12.2017 00:00:00 15,2 11,8 34 18 SSO 1016,2 12 -
11.12.2017 23:00:00 15,2 11,4 29 16 SSO 1015,2 12 -
11.12.2017 22:00:00 15,6 10,4 37 20 SSO 1016,2 14 -
11.12.2017 21:00:00 15,8 10,1 31 17 SSO 1016,3 14 -
11.12.2017 20:00:00 16,0 10,3 29 16 SSO 1015,8 14 -
11.12.2017 19:00:00 16,2 11,2 28 15 SSO 1015,6 14 -
11.12.2017 18:00:00 16,0 13,1 24 13 SSO 1015,4 14 0
11.12.2017 17:00:00 16,0 13,7 26 14 SSO 1015,2 16 0
11.12.2017 16:00:00 16,2 13,1 28 15 SSO 1015,1 20 6
11.12.2017 15:00:00 16,2 12,5 28 15 SSO 1015,2 20 60
11.12.2017 14:00:00 15,8 12,7 28 15 SO 1015,7 20 54
11.12.2017 13:00:00 15,0 12,7 28 15 SSO 1016,5 18 0
11.12.2017 12:00:00 14,0 11,7 31 17 SSO 1017,5 18 0
11.12.2017 11:00:00 14,0 11,2 28 15 SSO 1018,0 18 0
11.12.2017 10:00:00 13,4 9,8 28 15 SO 1018,4 18 0
11.12.2017 09:00:00 13,0 9,2 22 12 SO 1018,4 18 0
11.12.2017 08:00:00 12,0 7,3 16 9 SO 1018,6 18 0
11.12.2017 07:00:00 11,4 5,3 18 10 OSO 1018,6 20 0
11.12.2017 06:00:00 10,4 5,8 16 9 OSO 1018,2 16 -
11.12.2017 05:00:00 10,4 5,2 16 9 OSO 1019,3 16 -
11.12.2017 04:00:00 11,6 5,0 15 8 OSO 1019,4 16 -
11.12.2017 03:00:00 11,4 3,2 16 9 OSO 1019,4 16 -
11.12.2017 02:00:00 11,6 3,1 18 10 OSO 1019,4 16 -
11.12.2017 01:00:00 11,6 5,0 22 12 OSO 1019,6 16 -
11.12.2017 00:00:00 10,8 5,8 15 8 OSO 1019,9 16 -
10.12.2017 23:00:00 10,0 5,8 13 7 SO 1020,4 16 -
10.12.2017 22:00:00 10,0 6,4 13 7 O 1020,7 14 -
10.12.2017 21:00:00 10,2 6,4 9 5 ONO 1020,7 12 -
10.12.2017 20:00:00 10,8 6,7 11 6 O 1020,6 12 -
10.12.2017 19:00:00 11,4 7,7 8 4 O 1020,4 12 -
10.12.2017 18:00:00 11,6 7,9 11 6 NO 1020,3 15 -
10.12.2017 17:00:00 12,6 7,7 9 5 E 1020,0 15 0

tt = Temperatura
td = dewpoint
ff = velocità del vento
dd = direzione del vento
ppp = reduced air pressure
vv = visibility
sd = ore di luce

Stazioni seguenti

WeatherPro
AMSI
MeteoEarth